Miscellaneous Local Product
Issued by NWS North Platte, NE

Home | Current Version | Previous Version | Text Only | Print | Product List | Glossary On
Versions: 1 2 3 4 5 6 7 8 9 10 11 12 13 14 15 16 17 18 19 20 21 22 23 24 25 26 27 28 29 30 31 32 33 34 35 36 37 38 39 40 41 42 43 44 45 46 47 48 49 50
000
AXUS43 KLBF 220810
MISLBF


WESTERN AND NORTH CENTRAL NEBRASKA HOURLY WEATHER ROUNDUP
NATIONAL WEATHER SERVICE NORTH PLATTE NE
300 AM CDT SUN APR 22 2018

NOTE: "FAIR" INDICATES FEW OR NO CLOUDS BELOW 12,000 FEET WITH NO
SIGNIFICANT WEATHER AND/OR OBSTRUCTIONS TO VISIBILITY.

NOTE: STATIONS NOT REPORTING VARIABLES SUCH AS SKY/WEATHER OR
PRESSURE ARE PROVIDED BY RAWS AND APRS NETWORKS AND ARE NOT UNDER
NATIONAL WEATHER SERVICE QUALITY CONTROL.

...OBSERVATIONS IN AND NEAR THE EASTERN PANHANDLE OF NEBRASKA...

CITY           SKY/WX    TMP DP  RH WIND       PRES   REMARKS
PINE RIDGE     CLEAR     38  36  92 S13G22    30.16S WCI  30
GORDON         FAIR      33  32  96 S3        30.17F
CHADRON        CLEAR     36  34  92 S7        30.15F WCI  30
ALLIANCE       CLOUDY    36  36 100 S10       30.17F WCI  28
SIDNEY         MOCLDY    34  33  96 S8        30.18F WCI  27
CRESCENT LAKE    N/A     37  36  98 S8          N/A  WCI  31
$$

...OBSERVATIONS IN NORTHERN NEBRASKA AND FAR SOUTHERN SOUTH DAKOTA...

CITY           SKY/WX    TMP DP  RH WIND       PRES   REMARKS
WINNER         FAIR      41  34  76 S8        30.23F
VALENTINE      PTCLDY    41  37  86 S12       30.21F
AINSWORTH      CLOUDY    39  38  93 S5        30.23F
O`NEILL        CLOUDY    43  38  83 CALM      30.25F
THEDFORD       CLOUDY    38  37  93 SE3       30.23F
BROKEN BOW     CLOUDY    40  37  89 CALM      30.22F
ORD            CLOUDY    40  38  93 N3        30.23F
ALBION         CLOUDY    39  37  90 NW6       30.24F WCI  35
VALENTINE NWR    N/A     39  36  91 S5          N/A
HALSEY           N/A     39  38  97 CALM        N/A
BUTTE            N/A     41  36  81 CALM        N/A
CHAMBERS         N/A     40  36  87 CALM        N/A
EWING            N/A     41  37  84 CALM        N/A
$$

...OBSERVATIONS IN SOUTHWEST NEBRASKA AND FAR NORTHEAST COLORADO...

CITY           SKY/WX    TMP DP  RH WIND       PRES   REMARKS
WRAY           CLOUDY    34  34 100 W3        30.20F FOG
HOLYOKE        CLOUDY    37  36  93 SW3       30.21S FOG
IMPERIAL       CLOUDY    39  39 100 CALM      30.20F
OGALLALA       CLOUDY    37  37  97 E3        30.21F FOG
NORTH PLATTE   CLOUDY    40  37  89 SE5       30.22F
MCCOOK         CLOUDY    41  40  96 CALM      30.23S FOG
LEXINGTON      CLOUDY    41  38  89 CALM      30.23F
STAPLETON        N/A     38  36  92 CALM        N/A
GOTHENBURG       N/A     41  37  87 CALM        N/A
CALLAWAY         N/A     39  38  95 CALM        N/A
$$

...OBSERVATIONS IN CENTRAL LINCOLN COUNTY AREA...

CITY           SKY/WX    TMP DP  RH WIND       PRES   REMARKS
N.P. AIRPORT   CLOUDY    40  37  89 SE5       30.22F
N.P. DOWNTOWN    N/A     39  37  94 CALM        N/A
N.P. SOUTHEAST   N/A     39  37  92 CALM        N/A
N.P. HILLCREST   N/A     39  38  95 E5          N/A
$$

...OBSERVATIONS ACROSS THE ROCKIES AND WESTERN HIGH PLAINS...

CITY           SKY/WX    TMP DP  RH WIND       PRES   REMARKS
RAPID CITY     CLEAR     37  33  85 SE10      30.11F WCI  30
SCOTTSBLUFF    PTCLDY    33  33 100 E8        30.16F FOG     WCI  26
CHEYENNE       CLOUDY    34  34 100 SW10      30.13F FOG     WCI  26
DENVER         CLEAR     35  31  85 SW12      30.14F WCI  27
BERTHOUD PASS  CLOUDY    23  12  63 NW29      30.32R WCI   6
MONARCH PASS     N/A     23  21  93 W12G18    30.45R WCI  12
ASPEN          CLEAR     29  26  89 S6        30.27S WCI  23
STEAMBOAT      FAIR      32  32 100 CALM      30.24S
LARAMIE        CLEAR     28  27  96 S5        30.16S WCI  23
CASPER         CLEAR     33  33 100 CALM      30.11S
$$

...OBSERVATIONS ACROSS THE NORTHERN PLAINS...

CITY           SKY/WX    TMP DP  RH WIND       PRES   REMARKS
BISMARCK       CLEAR     44  35  70 S10       30.17S
FARGO          FAIR      41  35  79 S10       30.27S
PIERRE         CLEAR     35  33  92 S7        30.21F WCI  29
SIOUX FALLS    CLOUDY    40  33  76 E3        30.27F
$$

...OBSERVATIONS ACROSS THE CENTRAL AND SOUTHERN PLAINS...

CITY           SKY/WX    TMP DP  RH WIND       PRES   REMARKS
OMAHA          CLOUDY    50  29  44 E10G21    30.21F
GRAND ISLAND   CLOUDY    38  37  97 NW6       30.21F FOG     WCI  33
KANSAS CITY    CLOUDY    53  30  41 NE12      30.11F
WICHITA        LGT RAIN  45  45 100 N13       30.09F
DODGE CITY     CLOUDY    42  40  92 N12       30.18S FOG
OKLAHOMA CITY  CLOUDY    45  42  89 N21       30.10R
DALLAS         CLOUDY    53  49  86 N14       30.03S
AMARILLO       CLOUDY    42  40  92 N9        30.19F
$$




USA.gov is the U.S. government's official web portal to all federal, state and local government web resources and services.